Location: Namasale
(1.5000°N, 32.6167°E)
Time: 01:27:45
(UTC+00:00)

Tiros 1 despin weight - All Passes

Search period start: 21 April 2021 00:00
Search period end: 01 May 2021 00:00
Orbit: 593 x 641 km, 48.2° (Epoch: 20 April)

Date Brightness Start Highest point End Pass type
(mag) Time Alt. Az. Time Alt. Az. Time Alt. Az.
21 Apr - 00:36:24 10° W 00:39:48 20° NW 00:43:10 10° N night (unlit)
21 Apr - 11:01:25 10° NNW 11:05:47 66° NE 11:10:09 10° SE daylight
21 Apr - 23:09:57 10° SW 23:14:40 87° ESE 23:19:19 10° NE night (unlit)
22 Apr - 09:38:30 10° NNE 09:40:39 13° NE 09:42:49 10° E daylight
22 Apr - 11:17:53 10° WNW 11:22:02 41° SW 11:26:12 10° SSE daylight
22 Apr - 21:46:16 10° S 21:49:31 18° SE 21:52:46 10° E night (unlit)
22 Apr - 23:26:41 10° WSW 23:30:55 34° NW 23:35:09 10° NNE night (unlit)
23 Apr - 09:52:57 10° NNW 09:56:58 35° NE 10:01:00 10° ESE daylight
23 Apr - 11:35:41 10° W 11:38:19 16° SW 11:40:58 10° SSW daylight
23 Apr - 22:01:18 10° SSW 22:05:48 47° SE 22:10:18 10° NE night (unlit)
23 Apr - 23:44:56 10° W 23:47:15 14° NW 23:49:34 10° NNW night (unlit)
24 Apr - 10:08:50 10° NW 10:13:14 79° SW 10:17:37 10° SE daylight
24 Apr - 20:39:56 10° SE 20:40:37 10° SE 20:41:18 10° ESE night (unlit)
24 Apr - 22:17:26 10° SW 22:22:03 62° NW 22:26:40 10° NNE night (unlit)
25 Apr - 08:44:55 10° N 08:48:08 20° NE 08:51:21 10° E daylight
25 Apr - 10:25:44 10° WNW 10:29:29 27° SW 10:33:15 10° S daylight
25 Apr - 20:53:00 10° S 20:56:56 27° SE 21:00:52 10° ENE night (unlit)
25 Apr - 22:34:36 10° WSW 22:38:20 23° NW 22:42:03 10° N night (unlit)
26 Apr - 09:00:07 10° NNW 09:04:25 54° NE 09:08:43 10° SE daylight
26 Apr - 10:45:16 10° WSW 10:45:48 10° SW 10:46:20 10° SW daylight
26 Apr - 21:08:32 10° SSW 21:13:12 72° SE 21:17:51 10° NE night (unlit)
27 Apr - 07:37:56 10° NNE 07:39:14 11° NE 07:40:32 10° ENE daylight
27 Apr - 09:16:23 10° NW 09:20:40 51° SW 09:24:56 10° SSE daylight
27 Apr - 19:45:18 10° SSE 19:48:03 15° SE 19:50:49 10° E night (unlit)
27 Apr - 21:25:03 10° WSW 21:29:27 41° NW 21:33:51 10° NNE night (unlit)
28 Apr - 07:51:44 10° N 07:55:35 29° NE 07:59:25 10° ESE daylight
28 Apr - 09:33:50 10° W 09:36:56 19° SW 09:40:01 10° S daylight
28 Apr - 20:00:00 10° SSW 20:04:20 39° SE 20:08:42 10° ENE night (unlit)
28 Apr - 21:42:52 10° W 21:45:46 16° NW 21:48:40 10° N night (unlit)
29 Apr - 08:07:25 10° NW 08:11:51 84° NE 08:16:15 10° SE daylight
29 Apr - 20:15:56 10° SW 20:20:35 75° NW 20:25:15 10° NE night (unlit)
30 Apr - 06:43:51 10° N 06:46:43 17° NE 06:49:33 10° E daylight
30 Apr - 08:24:06 10° WNW 08:28:05 33° SW 08:32:03 10° SSE daylight
30 Apr - 18:51:50 10° S 18:55:28 22° SE 18:59:06 10° ENE night (unlit)
30 Apr - 20:32:52 10° WSW 20:36:51 28° NW 20:40:51 10° N night (unlit)
